This is the latest recevied weather packets stored in our database for station/object OE3APM-13. If no packets are shown the sender has not sent any weather packets the latest 10 day(s).
| Time | Temp. | Humidity | Pressure | Rain* | Wind** | Luminosity | Snow |
|---|---|---|---|---|---|---|---|
| 1778399628 | 15.56° C | 60% | 1015 hPa | 0 mm | - | 650 W/m² | - |
| 1778399322 | 15° C | 57% | 1015 hPa | 0 mm | - | 643 W/m² | - |
| 1778399022 | 15° C | 57% | 1015 hPa | 0 mm | - | 636 W/m² | - |
| 1778398722 | 15° C | 57% | 1015 hPa | 0 mm | - | 633 W/m² | - |
| 1778398422 | 14.44° C | 59% | 1015 hPa | 0 mm | - | 615 W/m² | - |
| 1778398120 | 14.44° C | 59% | 1015 hPa | 0 mm | - | 608 W/m² | - |
| 1778397818 | 14.44° C | 60% | 1015.2 hPa | 0 mm | - | 592 W/m² | - |
| 1778397518 | 13.89° C | 61% | 1015.2 hPa | 0 mm | - | 582 W/m² | - |
| 1778397216 | 13.89° C | 62% | 1015.2 hPa | 0 mm | - | 568 W/m² | - |
| 1778396918 | 13.33° C | 60% | 1015.2 hPa | 0 mm | - | 554 W/m² | - |
| 1778396617 | 13.33° C | 63% | 1015.2 hPa | 0 mm | - | 541 W/m² | - |
| 1778396314 | 13.33° C | 64% | 1015.4 hPa | 0 mm | - | 526 W/m² | - |
| 1778396014 | 12.78° C | 64% | 1015.4 hPa | 0 mm | - | 512 W/m² | - |
| 1778395720 | 12.78° C | 64% | 1015.6 hPa | 0 mm | - | 497 W/m² | - |
| 1778395413 | 12.22° C | 65% | 1015.6 hPa | 0 mm | - | 483 W/m² | - |
| 1778395112 | 12.22° C | 65% | 1015.6 hPa | 0 mm | - | 471 W/m² | - |
| 1778394810 | 12.22° C | 66% | 1015.8 hPa | 0 mm | - | 457 W/m² | - |
| 1778394509 | 11.67° C | 66% | 1015.9 hPa | 0 mm | - | 441 W/m² | - |
| 1778394207 | 11.67° C | 68% | 1015.8 hPa | 0 mm | - | 425 W/m² | - |
| 1778393906 | 11.67° C | 69% | 1015.8 hPa | 0 mm | - | 410 W/m² | - |
| 1778393606 | 11.11° C | 69% | 1015.9 hPa | 0 mm | - | 396 W/m² | - |
| 1778393306 | 11.11° C | 69% | 1015.9 hPa | 0 mm | - | 381 W/m² | - |
| 1778393006 | 11.11° C | 70% | 1016 hPa | 0 mm | - | 369 W/m² | - |
| 1778392704 | 10.56° C | 72% | 1016 hPa | 0 mm | - | 352 W/m² | - |
| 1778392401 | 10.56° C | 72% | 1016.1 hPa | 0 mm | - | 338 W/m² | - |
* Rain latest hour (hover to see other rain measurements)
** Current wind speed in m/s (hover to see current wind gust speed)